{"data":{"norad_id":61219,"intl_designator":"2024-171V","name":"STARLINK-32248","alt_names":[],"object_type":"PAYLOAD","status":"ACTIVE","operator":null,"country":"US","launch_date":"2024-09-20","launch_site_code":"AFWTR","launch_vehicle":null,"mission":null,"orbit_class":"UNKNOWN","rcs_meters":null,"size_class":null,"mass_kg":null,"dimensions":null,"purposes":["comms"],"wikipedia_slug":null,"has_3d_model":false,"image_url":null,"decayed_at":null,"tle_current":{"epoch":"2026-09-21T21:24:57.163392Z","epoch_age_seconds":71873,"freshness":"FRESH","line1":"1 61219U 24171V   26264.89232828  .00002056  00000+0  77984-4 0  9997","line2":"2 61219  53.1589 129.9886 0002040  33.7691 326.3440 15.31710343113331","mean_motion":15.31710343,"eccentricity":0.000204,"inclination_deg":53.1589,"raan_deg":129.9886,"arg_perigee_deg":33.7691,"mean_anomaly_deg":326.344,"bstar":7.7984e-5,"rev_number":11333,"period_min":94.012553129309,"perigee_km":469.311998837,"apogee_km":472.10632807169,"semimajor_km":6848.8461634543,"source":"CELESTRAK","updated_at":"2026-09-22T09:00:49.346790Z"}}}